OBJECT C, 42827

Orbit data source: Space-Track

You're viewing an Uncataloged Satellite

Recently launched and/or uncataloged satellites may have evolving metadata. Metadata may include but not limited to: Owner, Maufacturer, Bus, Motor, and Mission.

OBJECT C, 42827 is a satellite in SSO that was launched on Fri, 14 Jul 2017 UTC via a SOYUZ-2-1A launch vehicle from the Tyuratam Missile And Space Complex (TTMTR). Unknown objects in Earth's orbit typically refer to objects detected orbiting the Earth but have not yet been identified or cataloged. These objects could be anything from previously untracked satellites, spent rocket stages, debris from satellite collisions, or even natural meteoroids temporarily captured by Earth's gravity.

Loading next visibility...
Identifier
42827, 2017-042C
Orbit
SSO
Country
Flag of TBDTBD
Related business
None
Manufacturer
Unknown
Mission
Non-operational Amateur Technology
Bus & Motor
Unknown
Mass
Unknown
Launch date (UTC)
2017-07-14 (8 years ago)
Launch vehicle
SOYUZ-2-1A
Launch site
Tyuratam Missile And Space Complex (TTMTR)
Object type
Unknown
Shape & HBR
Box, 0.1 m
Radar Cross Section
0.035 m², Small (<0.1 m²)

Expand to show TLE details & history
Last TLE update: 9 hours ago

TLE from 9 hours ago
0 OBJECT C
1 42827U 17042C   25308.02322997  .00016145  00000-0  78367-3 0  9990
2 42827  97.4000 121.8148 0010864 143.0342 217.1643 15.18503360453576
Epoch: 2025-11-04T00:33Z
TLE epoch observation values (Epoch: 2025-11-04T00:33:27.069Z)
Latitude
-0.00001°
Longitude
69.93581°
Altitude
519.42 km
Speed
7.6 km/s
True Right ascension
08h 07m 15s
True Declination
0° 00' 00"
Sunlit
Object was in daylight at epoch
Visualization orbit readout
Latitude
Unknown
Longitude
Unknown
Altitude
Unknown
Speed
Unknown
Apparent Right ascension
Unknown
Apparent Declination
Unknown
Sunlit
N/A
Visualization observer readout
Local Sidereal Time
05:48:09
Azimuth
Unknown
Elevation
Unknown
Doppler factor
Unknown
Orbital elements
Apogee altitude
514.811 km
Perigee altitude
499.85 km
Semi-major axis
6,885.468 km
Eccentricity
0.00109
Inclination
97.4°
RAAN
121.8148°
Arg. of periapsis
143.0342°
True anomaly
217.08918°
Mean anomaly
217.1643°
Eccentric anomaly
217.12673°
Mean motion
3.79877 °/min
Orbital period
94.77 mins
BSTAR
0.00078367
Loading maneuver chart data...
Computing Atmospheric mass density...
Loading historical data...
Loading historical data...
Loading historical data...
Loading historical data...
Loading historical data...
Loading historical data...
Loading historical data...

Documentation

Showing up to 5 results
|